Regional Weather Roundup
Issued by NWS

Home | Current Version | Previous Version | Graphics & Text | Print | Product List | Glossary On
Versions: 1 2 3 4 5 6 7 8 9 10 11 12 13 14 15 16 17 18 19 20 21 22 23 24 25 26 27 28 29 30 31 32 33 34 35 36 37 38 39 40 41 42 43 44 45 46 47 48 49 50
000
ASUS44 KMEG 290510
RWRTN
TENNESSEE HOURLY STATE WEATHER ROUNDUP
NATIONAL WEATHER SERVICE MEMPHIS TN
1200 AM CDT FRI MAY 29 2015

TNZ002-004-019-021-049-052-054-088>092-290600-
WEST TENNESSEE

CITY           SKY/WX    TMP DP  RH WIND       PRES   REMARKS
MEMPHIS INTL   MOCLDY    75  66  73 SE9       30.08S
NWS MEMPHIS      N/A     72 N/A N/A MISG        N/A
JACKSON        CLEAR     71  66  84 S7        30.09S
DYERSBURG      CLEAR     70  54  56 CALM      30.09S
PARIS          PTCLDY    68  64  88 SE6       30.10F
LEXINGTON      PTCLDY    72  66  83 S5        30.10F
$$

TNZ008-025-027-028-033-062-065-066-290600-
NORTH MIDDLE TENNESSEE

CITY           SKY/WX    TMP DP  RH WIND       PRES   REMARKS
NASHVILLE      CLOUDY    69  66  90 SE5       30.14F
CLARKSVILLE    MOCLDY    71  66  84 SE3       30.11F
SMYRNA         CLOUDY    67  66  96 SE5       30.15F
COOKEVILLE     CLEAR     64  64 100 E5G26     30.17F
CROSSVILLE     CLOUDY    68  62  81 S3        30.22F
$$

TNZ061-075-076-078-094-096-097-290600-
SOUTH MIDDLE TENNESSEE

CITY           SKY/WX    TMP DP  RH WIND       PRES   REMARKS
FAYETTEVILLE   PTCLDY   N/A N/A N/A MISG      30.15F
TULLAHOMA      CLEAR     66  64  94 CALM      30.17F
WINCHESTER     MOCLDY    70  66  88 S7        30.17F
MCMINNVILLE    CLEAR     66  66 100 CALM      30.17F
COLUMBIA       CLEAR     70  66  88 S3        30.11F
SHELBYVILLE    CLEAR     70  66  88 E3        30.15F
$$

TNZ017-018-042-046-047-290600-
NORTHEAST TENNESSEE

CITY           SKY/WX    TMP DP  RH WIND       PRES   REMARKS
TRI CITIES     MOCLDY    67  65  93 CALM      30.23F
ELIZABETHTON   CLEAR     63  61  94 NE5       30.25S
$$

TNZ012-013-036-069-073-074-290600-
CENTRAL EAST TENNESSEE

CITY           SKY/WX    TMP DP  RH WIND       PRES   REMARKS
KNOXVILLE      CLOUDY    71  65  81 W3        30.19F
OAK RIDGE      CLOUDY    71  65  81 CALM      30.21F
GATLINBURG       N/A     68  66  94 CALM      30.20F
MORRISTOWN     CLEAR     68  63  83 CALM      30.22F
$$

TNZ083-085-099-290600-
SOUTHEAST TENNESSEE

CITY           SKY/WX    TMP DP  RH WIND       PRES   REMARKS
CHATTANOOGA    MOCLDY    69  67  93 CALM      30.19F
$$

SKY/WX REPORTED AS FAIR MEANS FEW OR NO CLOUDS BELOW
12 THOUSAND FEET.



USA.gov is the U.S. government's official web portal to all federal, state and local government web resources and services.